Flag for India Weather past 2 weeks in Bhinga, Uttar Pradesh, India

Now
77 °F

Haze.


Feels Like: 78 °F
Forecast: 69 / 97 °F
Wind: No wind

Location: Lucknow / Amausi

Current Time: Oct 2, 2014 at 1:52:54 AM

Latest Report: Oct 2, 2014 at 1:00 AM


Visibility: 2 mi

Pressure: 29.83 "Hg

Humidity: 83%

Dew point: 72 °F

Location of BhingaLocation

Historic Weather in Bhinga — Graph

°F

Bhinga temperature yesterday

Maximum temperature yesterday: 91 °F (at 12:30 PM)
Minimum temperature yesterday: 68 °F (at 6:00 AM)
Average temperature yesterday: 79 °F

Past Weeks' High & Low Weather Summary

 TemperatureHumidityPressure
High102 °F (Sep 19, 11:00 AM)100% (Sep 20, 6:30 AM)29.95 "Hg (Sep 20, 6:30 AM)
Low68 °F (Oct 1, 6:00 AM)41% (Sep 26, 1:00 PM)29.53 "Hg (Sep 17, 3:00 PM)
Average87 °F70%29.72 "Hg
* Reported Midnight between Sep 16 and Sep 17 — Midnight between Oct 1 and Oct 2, Bhinga, Weather by CustomWeather, © 2014

Note: Actual official high and low records may vary slightly from our data, if they occured in-between our weather recording intervals... More about our weather records

Advertising

Bhinga weather history for previous 24 hours

 ConditionsComfort  
Time TempWeatherWind HumidityBarometerVisibility
12:00 AM
Oct 2
77 °FHaze.No wind89%29.83 "Hg2 mi
11:00 PM
Oct 1
77 °FHaze.No wind89%29.86 "Hg2 mi
10:00 PM77 °FHaze.No wind89%29.86 "Hg2 mi
9:00 PM79 °FHaze.No wind84%29.86 "Hg2 mi
8:30 PM79 °FHaze.No wind84%29.86 "Hg2 mi
8:00 PM81 °FHaze.No wind74%29.86 "Hg2 mi
7:30 PM81 °FHaze.No wind74%29.86 "Hg2 mi
7:00 PM82 °FHaze.No wind74%29.83 "Hg2 mi
6:30 PM84 °FHaze.No wind70%29.83 "Hg3 mi
6:00 PM86 °FHaze.No wind62%29.83 "Hg3 mi
5:00 PM88 °FHaze.2 mph59%29.83 "Hg3 mi
4:30 PM88 °FScattered clouds.2 mph59%29.83 "Hg3 mi
4:00 PM88 °FBroken clouds.2 mph59%29.83 "Hg3 mi
3:30 PM88 °FBroken clouds.2 mph62%29.83 "Hg3 mi
3:00 PM88 °FBroken clouds.2 mph62%29.83 "Hg3 mi
2:30 PM88 °FBroken clouds.2 mph66%29.86 "Hg3 mi
1:00 PM88 °FBroken clouds.2 mph62%29.89 "Hg3 mi
12:30 PM91 °FBroken clouds.2 mph56%29.89 "Hg2 mi
10:00 AM75 °FLight rain. Cloudy.3 mph83%29.95 "Hg2 mi
9:30 AM73 °FLight rain. Cloudy.3 mph89%29.95 "Hg2 mi
9:00 AM73 °FMore clouds than sun.5 mph89%29.95 "Hg1 mi
8:30 AM72 °FThunderstorms. Cloudy.5 mph94%29.95 "Hg1 mi
8:00 AM72 °FThunderstorms. More clouds than sun.5 mph94%29.92 "Hg1 mi
7:00 AM70 °FMore clouds than sun.2 mph94%29.92 "Hg1 mi
6:30 AM68 °FThunderstorms. More clouds than sun.2 mph100%29.89 "Hg1 mi
6:00 AM68 °FThunderstorms. Mostly cloudy.2 mph100%29.86 "Hg1 mi
4:00 AM73 °FPassing clouds.2 mph89%29.83 "Hg2 mi
3:00 AM73 °FPassing clouds.2 mph89%29.83 "Hg2 mi
2:00 AM73 °FPassing clouds.2 mph89%29.83 "Hg2 mi
1:00 AM73 °FPassing clouds.2 mph83%29.86 "Hg2 mi
Weather by CustomWeather, © 2014

See weather overviewHow to use our weather pages